Location: *
(39.6167°S, 171.5333°W)
Time: 21:52:39
(UTC+00:00)

Cosmos 2227 Rocket - Pass Details

Date: 13 May 2021
Orbit: 840 x 844 km, 71.0° (Epoch: 15 June)

Event Time Altitude Azimuth Distance (km) Brightness Sun altitude
Exits shadow 16:18:40 46° 219° (SW) 1,139 2.5 -23.8°
Drops below altitude 10° 16:23:29 10° 168° (SSE) 2,496 4.7 -22.9°
Sets 16:26:03 0° 162° (SSE) 3,438 5.5 -22.4°
